This is the latest recevied weather packets stored in our database for station/object K5OBH. If no packets are shown the sender has not sent any weather packets the latest 10 day(s).
| Time | Temp. | Humidity | Pressure | Rain* | Wind** | Luminosity | Snow |
|---|---|---|---|---|---|---|---|
| 1777931473 | 27.22° C | 55% | 1002.8 hPa | 0 mm | - | 266 W/m² | - |
| 1777931168 | 27.22° C | 54% | 1003 hPa | 0 mm | - | 369 W/m² | - |
| 1777930865 | 27.78° C | 54% | 1002.7 hPa | 0 mm | - | 385 W/m² | - |
| 1777930561 | 27.22° C | 53% | 1002.7 hPa | 0 mm | - | 349 W/m² | - |
| 1777930258 | 27.22° C | 53% | 1002.6 hPa | 0 mm | - | 320 W/m² | - |
| 1777929954 | 27.78° C | 54% | 1003.1 hPa | 0 mm | - | 365 W/m² | - |
| 1777929652 | 27.78° C | 54% | 1003.2 hPa | 0 mm | - | 381 W/m² | - |
| 1777929349 | 27.22° C | 55% | 1003.2 hPa | 0 mm | - | 551 W/m² | - |
| 1777929045 | 27.22° C | 54% | 1003.2 hPa | 0 mm | - | 477 W/m² | - |
| 1777928743 | 27.22° C | 54% | 1003.3 hPa | 0 mm | - | 450 W/m² | - |
| 1777928439 | 27.22° C | 52% | 1003.8 hPa | 0 mm | - | 529 W/m² | - |
| 1777928137 | 26.67° C | 53% | 1003.6 hPa | 0 mm | - | 475 W/m² | - |
| 1777927835 | 26.67° C | 53% | 1003.8 hPa | 0 mm | - | 448 W/m² | - |
| 1777927533 | 27.22° C | 53% | 1003.9 hPa | 0 mm | - | 559 W/m² | - |
| 1777927232 | 27.22° C | 54% | 1004.2 hPa | 0 mm | - | 676 W/m² | - |
| 1777926929 | 27.22° C | 53% | 1004.1 hPa | 0 mm | - | 427 W/m² | - |
| 1777926626 | 26.67° C | 54% | 1004.3 hPa | 0 mm | - | 690 W/m² | - |
| 1777926322 | 27.22° C | 51% | 1004.2 hPa | 0 mm | - | 685 W/m² | - |
| 1777926019 | 26.67° C | 54% | 1004.3 hPa | 0 mm | - | 644 W/m² | - |
| 1777925716 | 26.67° C | 54% | 1004.4 hPa | 0 mm | - | 685 W/m² | - |
| 1777925414 | 26.11° C | 55% | 1004.4 hPa | 0 mm | - | 573 W/m² | - |
| 1777925110 | 26.11° C | 54% | 1004.6 hPa | 0 mm | - | 344 W/m² | - |
| 1777924807 | 26.11° C | 54% | 1004.5 hPa | 0 mm | - | 616 W/m² | - |
| 1777924503 | 26.67° C | 53% | 1004.8 hPa | 0 mm | - | 619 W/m² | - |
| 1777924199 | 26.11° C | 53% | 1004.7 hPa | 0 mm | - | 575 W/m² | - |
* Rain latest hour (hover to see other rain measurements)
** Current wind speed in m/s (hover to see current wind gust speed)